Location: Big Meadows
(38.5260°N, 78.4400°W)
Time: 07:36:25
(UTC-04:00)

H-2A R/B - Visible Passes

Search period start: 02 September 2014 00:00
Search period end: 12 September 2014 00:00
Orbit: 734 x 840 km, 98.5° (Epoch: 01 September)

Date Brightness Start Highest point End Pass type
(mag) Time Alt. Az. Time Alt. Az. Time Alt. Az.
02 Sep 4.3 22:41:59 13° NNE 22:41:59 13° NNE 22:42:51 10° NNE visible
03 Sep 4.8 00:22:39 12° NNW 00:22:39 12° NNW 00:23:05 10° NNW visible
03 Sep 4.6 23:51:58 16° NNW 23:51:58 16° NNW 23:52:53 10° NNW visible
04 Sep 4.4 23:21:17 16° N 23:21:17 16° N 23:22:17 10° N visible
05 Sep 4.4 22:50:35 13° NNE 22:50:35 13° NNE 22:51:17 10° NNE visible
07 Sep 4.8 00:00:34 13° NNW 00:00:34 13° NNW 00:01:01 10° NNW visible
07 Sep 4.6 23:29:52 14° N 23:29:52 14° N 23:30:32 10° N visible
08 Sep 4.5 22:59:11 12° NNE 22:59:11 12° NNE 22:59:39 10° N visible
10 Sep 4.8 23:38:28 12° N 23:38:28 12° N 23:38:45 10° N visible
11 Sep 4.7 23:07:46 11° N 23:07:46 11° N 23:08:00 10° N visible
